DW8052 Weather Reports


time (UTC)temp
C
wind
direction
speed
KPH
gust
KPH
rain 1hr
cm
rain 24hr
cm
rain mn
cm
humidity
%
barometer
mb
20260831132218 15 337 9.7 11.3 0.00 0.03 0.03 69 1028.8
20260831131718 15 337 9.7 12.9 0.00 0.03 0.03 68 1028.9
20260831131217 15 340 11.3 14.5 0.00 0.03 0.03 69 1028.9
20260831130718 15 343 11.3 14.5 0.00 0.03 0.03 69 1029.1
20260831130218 15 337 11.3 12.9 0.00 0.03 0.03 69 1029.2
20260831125218 15 334 12.9 14.5 0.00 0.03 0.03 69 1029.1
20260831124217 16 332 11.3 14.5 0.00 0.03 0.03 70 1029.1
20260831123717 16 335 11.3 14.5 0.00 0.03 0.03 69 1029.3
20260831123218 16 332 11.3 12.9 0.00 0.03 0.03 69 1029.2
20260831122717 16 338 11.3 16.1 0.00 0.03 0.03 69 1029.2
20260831122218 15 340 12.9 14.5 0.00 0.03 0.03 69 1029.2
20260831121718 15 336 12.9 14.5 0.00 0.03 0.03 70 1029.4
20260831121217 15 322 11.3 12.9 0.00 0.03 0.03 71 1029.3
20260831115718 15 304 9.7 11.3 0.00 0.03 0.03 77 1029.3
20260831115217 15 297 8.0 11.3 0.00 0.03 0.03 78 1029.5
20260831114718 15 287 8.0 9.7 0.00 0.03 0.03 79 1029.6
20260831113717 16 291 8.0 8.0 0.00 0.03 0.03 78 1029.6
20260831113217 16 333 4.8 4.8 0.00 0.03 0.03 78 1029.6
20260831112218 16 339 8.0 9.7 0.00 0.03 0.03 77 1029.4
20260831111718 16 348 8.0 11.3 0.00 0.03 0.03 77 1029.5
20260831110717 16 1 12.9 16.1 0.00 0.03 0.03 77 1029.6
20260831110218 16 1 14.5 16.1 0.00 0.03 0.03 77 1029.6
20260831105718 16 1 14.5 19.3 0.00 0.03 0.03 77 1029.7
20260831105217 16 3 14.5 19.3 0.00 0.03 0.03 78 1029.5
20260831104217 16 1 14.5 19.3 0.00 0.03 0.03 79 1029.6
20260831103717 16 2 14.5 19.3 0.00 0.03 0.03 80 1029.7
20260831103217 16 1 14.5 16.1 0.00 0.03 0.03 80 1029.6
20260831102717 16 3 14.5 19.3 0.00 0.03 0.03 80 1029.9
20260831102217 16 4 12.9 16.1 0.00 0.03 0.03 81 1029.5
20260831101717 16 2 11.3 16.1 0.00 0.03 0.03 81 1029.7
20260831101217 16 1 11.3 14.5 0.00 0.03 0.03 81 1029.6
20260831100217 16 8 9.7 14.5 0.00 0.03 0.03 81 1029.6
20260831095717 16 1 11.3 14.5 0.00 0.03 0.03 81 1029.7
20260831095217 16 1 12.9 19.3 0.00 0.03 0.03 81 1029.6
20260831094717 16 3 11.3 14.5 0.00 0.03 0.03 81 1029.6
20260831094217 16 3 14.5 19.3 0.00 0.03 0.03 81 1029.4
20260831093717 16 0 11.3 16.1 0.00 0.03 0.03 81 1029.6
20260831093217 16 0 9.7 12.9 0.00 0.03 0.03 80 1029.5
20260831092717 16 11 9.7 14.5 0.00 0.03 0.03 80 1029.4
20260831091717 16 12 9.7 16.1 0.00 0.03 0.03 80 1029.4
20260831091217 16 12 11.3 19.3 0.00 0.03 0.03 80 1029.4
20260831085717 16 12 9.7 12.9 0.00 0.03 0.03 79 1029.4
20260831085217 16 18 9.7 14.5 0.00 0.03 0.03 80 1029.2
20260831084717 16 13 9.7 14.5 0.00 0.03 0.03 80 1029.2
20260831083718 16 15 9.7 16.1 0.00 0.03 0.03 80 1029.3
20260831083218 16 16 8.0 12.9 0.00 0.03 0.03 80 1029.4
20260831082717 16 18 11.3 14.5 0.00 0.03 0.03 80 1029.2
20260831082217 16 23 9.7 16.1 0.00 0.03 0.03 80 1029.1
20260831081217 16 25 11.3 14.5 0.00 0.03 0.03 78 1029.1
20260831075717 16 24 11.3 19.3 0.00 0.03 0.03 77 1029.0
20260831075217 16 31 16.1 19.3 0.00 0.03 0.03 76 1029.0
20260831074717 16 34 16.1 20.9 0.00 0.03 0.03 75 1029.0
20260831074217 16 30 14.5 20.9 0.00 0.03 0.03 74 1028.9
20260831073717 17 37 19.3 20.9 0.00 0.03 0.03 73 1029.0
20260831073217 17 42 17.7 19.3 0.00 0.03 0.03 72 1029.0
20260831072717 17 40 16.1 19.3 0.00 0.03 0.03 72 1028.9
20260831072217 17 40 11.3 14.5 0.00 0.03 0.03 72 1029.0
20260831071217 17 50 11.3 19.3 0.00 0.03 0.03 71 1029.0
20260831065717 17 41 19.3 20.9 0.00 0.03 0.03 70 1029.0
20260831065217 17 43 16.1 20.9 0.00 0.03 0.03 71 1028.9
20260831064717 17 39 16.1 20.9 0.00 0.03 0.03 70 1028.9
20260831063716 17 32 19.3 20.9 0.00 0.03 0.03 68 1028.8
20260831062717 17 45 16.1 20.9 0.00 0.03 0.03 69 1028.7
20260831062217 17 43 16.1 20.9 0.00 0.03 0.03 66 1028.6
20260831061717 17 42 16.1 22.5 0.00 0.03 0.03 66 1028.7
20260831061217 17 52 19.3 20.9 0.00 0.03 0.03 67 1028.7
20260831060717 17 48 16.1 19.3 0.00 0.03 0.03 65 1028.6
20260831060217 17 55 16.1 19.3 0.00 0.03 0.03 67 1028.6
20260831055716 17 56 16.1 19.3 0.00 0.03 0.03 67 1028.7
20260831054217 17 62 19.3 22.5 0.00 0.03 0.03 68 1028.8
20260831053717 17 64 17.7 22.5 0.00 0.03 0.03 68 1028.7
20260831053216 17 62 19.3 22.5 0.00 0.03 0.03 69 1028.8
20260831052717 17 65 19.3 20.9 0.00 0.03 0.03 70 1028.7
20260831052216 17 67 17.7 24.1 0.00 0.03 0.03 69 1028.8
20260831051717 17 63 19.3 22.5 0.00 0.03 0.03 69 1028.8
20260831051216 18 63 19.3 22.5 0.00 0.03 0.03 69 1028.9
20260831050217 18 66 19.3 20.9 0.00 0.03 0.03 68 1028.9
20260831045717 18 67 16.1 20.9 0.00 0.03 0.03 67 1029.0
20260831045217 18 65 16.1 20.9 0.00 0.03 0.03 68 1028.8
20260831044717 18 65 17.7 20.9 0.00 0.03 0.03 67 1028.9
20260831044216 18 65 14.5 19.3 0.00 0.03 0.03 65 1029.1
20260831043717 18 62 16.1 19.3 0.00 0.03 0.03 64 1029.0
20260831042717 18 62 16.1 19.3 0.00 0.03 0.03 60 1029.0
20260831042216 18 60 14.5 19.3 0.00 0.03 0.03 60 1029.0
20260831041717 18 64 16.1 19.3 0.00 0.03 0.03 63 1029.0
20260831041216 18 57 14.5 19.3 0.00 0.03 0.03 64 1029.0
20260831040216 18 59 16.1 19.3 0.00 0.03 0.03 65 1029.1
20260831035717 18 56 14.5 19.3 0.00 0.03 0.03 62 1029.1
20260831035216 18 57 14.5 19.3 0.00 0.03 0.03 62 1029.1
20260831034217 18 64 16.1 19.3 0.00 0.03 0.03 65 1029.2
20260831033717 18 62 17.7 19.3 0.00 0.03 0.03 64 1029.2
20260831033217 18 65 19.3 20.9 0.00 0.03 0.03 66 1029.3
20260831032717 18 67 19.3 20.9 0.00 0.03 0.03 66 1029.4
20260831032217 18 65 16.1 19.3 0.00 0.03 0.03 65 1029.4
20260831031717 18 70 17.7 20.9 0.00 0.03 0.03 65 1029.5
20260831030716 18 64 16.1 19.3 0.00 0.03 0.03 64 1029.4
20260831030216 18 66 16.1 19.3 0.00 0.03 0.03 64 1029.5
20260831025716 19 66 16.1 19.3 0.00 0.03 0.03 64 1029.5
20260831025216 19 69 16.1 19.3 0.00 0.03 0.03 62 1029.6
20260831024717 20 71 16.1 19.3 0.00 0.03 0.03 61 1029.7
20260831024217 19 74 14.5 19.3 0.00 0.03 0.03 63 1029.6
20260831023716 19 72 9.7 16.1 0.00 0.03 0.03 64 1029.8
20260831023216 18 70 14.5 19.3 0.00 0.03 0.03 63 1029.9
20260831022716 19 62 16.1 19.3 0.00 0.03 0.03 61 1029.9
20260831022217 20 69 11.3 16.1 0.00 0.03 0.03 59 1030.0
20260831021716 20 84 9.7 12.9 0.00 0.03 0.03 60 1030.1
20260831021216 19 79 11.3 14.5 0.00 0.03 0.03 55 1030.3
20260831020717 18 84 11.3 14.5 0.00 0.03 0.03 50 1030.3
20260831015717 18 60 14.5 16.1 0.00 0.03 0.03 52 1030.5
20260831015216 18 56 12.9 16.1 0.00 0.03 0.03 52 1030.6
20260831014716 18 53 12.9 19.3 0.00 0.03 0.03 54 1030.8
20260831014216 18 49 12.9 14.5 0.00 0.03 0.03 54 1030.7
20260831013716 18 43 6.4 11.3 0.00 0.03 0.03 56 1030.8
20260831011216 19 72 1.6 8.0 0.00 0.03 0.03 55 1031.1
20260831010216 18 310 1.6 8.0 0.00 0.03 0.03 55 1031.5
20260831005716 18 2 9.7 14.5 0.00 0.03 0.03 54 1031.5
20260831005216 18 352 4.8 12.9 0.00 0.03 0.03 55 1031.5
20260831004216 17 321 11.3 16.1 0.00 0.03 0.03 55 1031.5
20260831003716 17 338 9.7 14.5 0.00 0.03 0.03 59 1031.6
20260831003217 17 344 14.5 19.3 0.00 0.03 0.03 59 1031.4
20260831002716 17 343 12.9 19.3 0.00 0.03 0.03 61 1031.5
20260831002216 17 348 8.0 19.3 0.00 0.03 0.03 63 1031.5
20260831001716 16 355 11.3 20.9 0.00 0.03 0.03 64 1031.6
20260831001216 16 351 17.7 20.9 0.00 0.03 0.03 63 1031.6
20260831000218 16 334 11.3 19.3 0.00 0.03 0.03 66 1031.5
20260830235717 16 344 9.7 19.3 0.00 0.03 0.03 66 1031.5
20260830235216 16 349 9.7 19.3 0.00 0.03 0.03 67 1031.4
20260830234716 16 353 11.3 16.1 0.00 0.03 0.03 66 1031.5
20260830234216 16 353 11.3 14.5 0.00 0.03 0.03 66 1031.4
20260830233716 16 334 9.7 14.5 0.00 0.03 0.03 67 1031.6
20260830233216 16 346 9.7 14.5 0.00 0.03 0.03 67 1031.5
20260830232716 16 341 9.7 14.5 0.00 0.03 0.03 67 1031.6
20260830232216 16 334 9.7 14.5 0.00 0.03 0.03 69 1031.5
20260830231716 15 353 8.0 12.9 0.00 0.03 0.03 68 1031.6
20260830231217 15 341 8.0 12.9 0.00 0.03 0.03 69 1031.5
20260830230716 15 339 8.0 11.3 0.00 0.03 0.03 70 1031.6
20260830230216 15 327 4.8 8.0 0.00 0.03 0.03 71 1031.6
20260830225716 15 339 4.8 9.7 0.00 0.03 0.03 72 1031.8
20260830225216 14 338 6.4 9.7 0.00 0.03 0.03 73 1031.6
20260830224716 14 341 8.0 11.3 0.00 0.03 0.03 72 1031.5
20260830224216 14 340 8.0 11.3 0.00 0.03 0.03 73 1031.4
20260830223716 14 330 8.0 11.3 0.00 0.03 0.03 74 1031.4
20260830223216 14 342 4.8 9.7 0.00 0.03 0.03 74 1031.6
20260830222216 14 342 4.8 8.0 0.00 0.03 0.03 76 1031.4
20260830221716 14 336 4.8 8.0 0.00 0.03 0.03 77 1031.7
20260830220216 13 333 0.0 4.8 0.00 0.03 0.03 81 1031.5
20260830215716 13 333 1.6 8.0 0.00 0.03 0.03 82 1031.3
20260830215216 13 333 4.8 9.7 0.00 0.03 0.03 83 1031.4
20260830214216 12 329 3.2 8.0 0.00 0.03 0.03 87 1031.1
20260830213716 12 332 8.0 9.7 0.00 0.03 0.03 87 1031.2
20260830213215 12 332 9.7 11.3 0.00 0.03 0.03 88 1031.1
20260830212716 12 330 9.7 12.9 0.00 0.03 0.03 89 1030.9
20260830212216 11 330 8.0 11.3 0.00 0.03 0.03 89 1030.9
20260830211715 11 334 8.0 11.3 0.00 0.03 0.03 90 1031.1
20260830211215 11 321 9.7 11.3 0.00 0.03 0.03 90 1030.9
20260830210715 11 318 9.7 11.3 0.00 0.03 0.03 90 1031.0
20260830210216 11 318 11.3 12.9 0.00 0.03 0.03 90 1030.8
20260830205216 11 326 11.3 12.9 0.00 0.03 0.03 91 1030.7
20260830204716 11 326 9.7 11.3 0.00 0.03 0.03 91 1030.6
20260830204216 11 322 9.7 12.9 0.00 0.03 0.03 90 1030.6
20260830203716 11 321 11.3 12.9 0.00 0.03 0.03 90 1030.5
20260830202715 11 307 11.3 12.9 0.00 0.03 0.03 90 1030.5
20260830202216 11 307 9.7 11.3 0.00 0.03 0.03 90 1030.3
20260830201715 11 307 9.7 11.3 0.03 0.03 0.03 90 1030.3
20260830201215 11 310 9.7 9.7 0.03 0.03 0.03 89 1030.4
20260830200715 11 296 9.7 9.7 0.03 0.03 0.03 89 1030.3
20260830200216 11 289 9.7 11.3 0.03 0.03 0.03 89 1030.3
20260830195716 11 287 8.0 9.7 0.03 0.03 0.03 89 1030.3
20260830195216 11 287 8.0 9.7 0.03 0.03 0.03 88 1030.1
20260830194716 11 274 9.7 11.3 0.03 0.03 0.03 89 1030.2
20260830193715 11 274 9.7 11.3 0.03 0.03 0.03 89 1030.0
20260830193216 12 273 11.3 12.9 0.03 0.03 0.03 88 1030.0
20260830192715 12 273 12.9 12.9 0.03 0.03 0.03 89 1029.9
20260830191215 11 282 11.3 12.9 0.00 0.00 0.00 88 1030.0
20260830190715 12 279 11.3 12.9 0.00 0.00 0.00 88 1029.9
20260830190215 12 279 11.3 12.9 0.00 0.00 0.00 88 1029.9
20260830185216 12 287 9.7 11.3 0.00 0.00 0.00 87 1029.9
20260830184215 12 284 11.3 12.9 0.00 0.00 0.00 87 1029.8
20260830183715 12 283 11.3 11.3 0.00 0.00 0.00 86 1029.8
20260830183215 12 279 9.7 11.3 0.00 0.00 0.00 86 1029.8
20260830182716 12 274 9.7 9.7 0.00 0.00 0.00 84 1029.8
20260830182216 12 274 8.0 9.7 0.00 0.00 0.00 84 1029.8
20260830181716 12 269 8.0 9.7 0.00 0.00 0.00 83 1029.8
20260830181215 12 269 8.0 8.0 0.00 0.00 0.00 82 1029.8
20260830180715 13 286 4.8 4.8 0.00 0.00 0.00 82 1029.7
20260830180215 13 286 3.2 4.8 0.00 0.00 0.00 82 1029.8
20260830175716 13 286 3.2 4.8 0.00 0.00 0.00 83 1029.7
20260830175215 13 281 3.2 4.8 0.00 0.00 0.00 82 1029.8
20260830174716 14 271 4.8 4.8 0.00 0.00 0.00 82 1029.9
20260830174216 14 247 0.0 0.0 0.00 0.00 0.00 82 1030.0
20260830173715 14 241 0.0 0.0 0.00 0.00 0.00 83 1030.0
20260830173216 14 227 0.0 0.0 0.00 0.00 0.00 82 1030.1
20260830172716 14 217 0.0 0.0 0.00 0.00 0.00 82 1030.1
20260830172215 14 217 1.6 8.0 0.00 0.00 0.00 83 1030.1
20260830171715 14 216 6.4 8.0 0.00 0.00 0.00 82 1030.0
20260830171215 14 217 4.8 4.8 0.00 0.00 0.00 83 1029.9
20260830170716 14 217 4.8 8.0 0.00 0.00 0.00 82 1030.0
20260830170215 14 222 8.0 9.7 0.00 0.00 0.00 82 1030.0
20260830165215 14 188 6.4 9.7 0.00 0.00 0.00 82 1030.1
20260830164715 14 197 3.2 8.0 0.00 0.00 0.00 82 1030.2
20260830164215 14 190 6.4 9.7 0.00 0.00 0.00 82 1030.1
20260830163715 14 199 8.0 9.7 0.00 0.00 0.00 82 1030.3
20260830163215 14 192 6.4 11.3 0.00 0.00 0.00 82 1030.3
20260830162715 14 189 9.7 11.3 0.00 0.00 0.00 82 1030.5
20260830162216 14 185 9.7 12.9 0.00 0.00 0.00 82 1030.7
20260830161215 14 193 11.3 14.5 0.00 0.00 0.00 82 1030.7
20260830160215 14 187 11.3 12.9 0.00 0.00 0.00 82 1030.6
20260830155715 14 190 11.3 16.1 0.00 0.00 0.00 82 1030.7
20260830155215 14 195 9.7 12.9 0.00 0.00 0.00 82 1030.7
20260830154715 14 192 9.7 11.3 0.00 0.00 0.00 82 1030.7
20260830153715 14 198 6.4 12.9 0.00 0.00 0.00 82 1030.7
20260830153215 14 192 9.7 12.9 0.00 0.00 0.00 82 1030.8
20260830152715 14 191 11.3 14.5 0.00 0.00 0.00 82 1030.8
20260830152215 14 188 11.3 14.5 0.00 0.00 0.00 82 1030.8
20260830151715 14 192 9.7 12.9 0.00 0.00 0.00 82 1030.7
20260830151215 14 190 11.3 12.9 0.00 0.00 0.00 82 1031.0
20260830150716 14 191 11.3 12.9 0.00 0.00 0.00 82 1031.0
20260830150215 14 186 9.7 11.3 0.00 0.00 0.00 82 1030.8
20260830145715 14 184 11.3 12.9 0.00 0.00 0.00 82 1030.9
20260830145215 14 188 11.3 14.5 0.00 0.00 0.00 82 1030.8
20260830144715 14 193 11.3 14.5 0.00 0.00 0.00 82 1031.1
20260830144215 14 191 11.3 14.5 0.00 0.00 0.00 82 1031.0
20260830143715 14 197 9.7 12.9 0.00 0.00 0.00 82 1030.9
20260830141715 15 184 8.0 12.9 0.00 0.00 0.00 82 1030.9
20260830141215 15 182 9.7 11.3 0.00 0.00 0.00 82 1031.0
20260830140716 15 179 9.7 12.9 0.00 0.00 0.00 82 1031.0
20260830140215 15 180 9.7 12.9 0.00 0.00 0.00 83 1030.8
20260830135716 15 179 11.3 12.9 0.00 0.00 0.00 82 1031.0
20260830135215 15 178 11.3 14.5 0.00 0.00 0.00 83 1030.8
20260830134715 15 177 11.3 14.5 0.00 0.00 0.00 82 1031.0
20260830134215 15 178 12.9 14.5 0.00 0.00 0.00 82 1030.9
20260830133715 15 180 12.9 16.1 0.00 0.00 0.00 82 1030.9
20260830132715 15 188 12.9 16.1 0.00 0.00 0.00 82 1031.0